This demonstration page uses our WeatherBlox Daily Observations layout. Learn more.

Hourly Observations for August 10, 2019

Temp ( °F °C ) Dew Point ( °F °C ) Humidity (%) Winds ( mph kmh ) Pressure ( in mb ) Visibility ( mi km ) Precip ( " mm )
12:15 am 00:15 Clear 73 22.8 69 20.8 89 89 SSE 12 19 29.8 1009 10 16.09344 0 0
12:35 am 00:35 Clear 73 23 69 20.8 87 87 SSE 10 17 29.8 1009 10 16.09344 0 0
12:55 am 00:55 Clear 73 22.6 69 20.8 90 90 SSE 12 19 29.8 1009 10 16.09344 0 0
1:15 am 01:15 Clear 73 22.5 70 21 91 91 SSE 9 15 29.8 1009 10 16.09344 0 0
1:35 am 01:35 Clear 73 22.5 70 21 91 91 SSE 9 15 29.85 1011 10 16.09344 0 0
1:55 am 01:55 Clear 73 22.5 70 21 91 91 SE 9 15 29.85 1011 10 16.09344 0 0
2:15 am 02:15 Clear 73 22.5 70 21 91 91 SSE 10 17 29.85 1011 10 16.09344 0 0
2:35 am 02:35 Clear 73 22.5 70 21 91 91 SSE 12 19 29.85 1011 10 16.09344 0 0
2:55 am 02:55 Clear 73 22.7 70 21 90 90 S 13 20 29.85 1011 10 16.09344 0 0
3:15 am 03:15 Clear 73 22.7 70 21 90 90 S 14 22 29.85 1011 10 16.09344 0 0
3:35 am 03:35 Clear 73 22.6 70 21 91 91 S 12 19 29.8 1009 10 16.09344 0 0
3:55 am 03:55 Partly Cloudy 73 22.5 70 21.1 92 92 E 9 15 29.85 1011 10 16.09344 0 0
4:15 am 04:15 Mostly Cloudy 72 22.1 70 21 94 94 S 8 13 29.83 1010 10 16.09344 0 0
4:35 am 04:35 Cloudy 72 22 70 21 94 94 SE 8 13 29.83 1010 10 16.09344 0 0
4:55 am 04:55 Mostly Cloudy 72 22 70 21.1 95 95 ESE 7 11 29.85 1011 7 11.265408 0 0
5:15 am 05:15 Mostly Cloudy 71 21.8 70 21 95 95 ESE 8 13 29.83 1010 7 11.265408 0 0
5:35 am 05:35 Partly Cloudy 71 21.6 70 21 96 96 SE 5 7 29.83 1010 7 11.265408 0 0
5:55 am 05:55 Clear 70 21.3 70 20.9 98 98 SE 6 9 29.83 1010 7 11.265408 0 0
6:15 am 06:15 Clear with Mist and Fog 70 21.1 69 20.8 98 98 SSE 5 7 29.83 1010 5 8.04672 0 0
6:35 am 06:35 Clear with Mist and Fog 70 21 69 20.7 98 98 SSE 8 13 29.83 1010 5 8.04672 0 0
6:55 am 06:55 Sunny with Mist and Fog 70 21.1 69 20.8 98 98 SSE 8 13 29.85 1011 4 6.437376 0 0
7:15 am 07:15 Partly Cloudy with Mist and Fog 70 21.2 70 21 99 99 SSE 9 15 29.85 1011 3 4.828032 0 0
7:35 am 07:35 Cloudy with Mist and Fog 71 21.5 70 21.2 98 98 S 10 17 29.85 1011 4 6.437376 0 0
7:55 am 07:55 Cloudy with Mist and Fog 71 21.8 70 21.3 97 97 SSE 15 24 29.88 1012 5 8.04672 0 0
8:15 am 08:15 Cloudy 72 22.4 71 21.5 95 95 S 15 24 29.85 1011 7 11.265408 0 0
8:35 am 08:35 Cloudy 73 22.8 71 21.5 92 92 S 14 22 29.83 1010 7 11.265408 0 0
8:55 am 08:55 Cloudy 74 23.2 71 21.5 90 90 S 13 20 29.83 1010 10 16.09344 0 0
9:15 am 09:15 Cloudy 75 24 71 21.7 87 87 S 14 22 29.83 1010 10 16.09344 0 0
9:35 am 09:35 Cloudy 75 24 71 21.7 87 87 SSW 13 20 29.83 1010 10 16.09344 0 0
9:55 am 09:55 Cloudy 76 24.5 71 21.9 85 85 SSW 9 15 29.83 1010 10 16.09344 0 0
10:15 am 10:15 Mostly Cloudy 77 25.1 72 22.1 83 83 SSW 10 17 29.83 1010 10 16.09344 0 0
10:35 am 10:35 Mostly Cloudy 78 25.4 72 22.3 83 83 SW 7 11 29.83 1010 10 16.09344 0 0
10:55 am 10:55 Mostly Cloudy 78 25.7 72 22.3 82 82 SW 6 9 29.83 1010 10 16.09344 0 0
11:15 am 11:15 Partly Cloudy 79 26.3 73 22.6 80 80 SW 7 11 29.8 1009 10 16.09344 0 0
11:35 am 11:35 Sunny 80 26.9 73 22.8 78 78 WSW 8 13 29.8 1009 10 16.09344 0 0
11:55 am 11:55 Sunny 81 27.2 73 23 78 78 W 6 9 29.8 1009 10 16.09344 0 0
12:15 pm 12:15 Sunny 82 27.6 73 22.8 75 75 W 7 11 29.8 1009 10 16.09344 0 0
12:35 pm 12:35 Sunny 82 27.9 73 22.7 73 73 Calm 29.8 1009 10 16.09344 0 0
12:55 pm 12:55 Sunny 82 27.7 73 22.9 75 75 WNW 3 6 29.8 1009 10 16.09344 0 0
1:15 pm 13:15 Sunny 82 27.7 74 23.1 76 76 NW 6 9 29.8 1009 10 16.09344 0 0
1:35 pm 13:35 Sunny 82 27.8 73 23 75 75 Calm 29.8 1009 10 16.09344 0 0
1:55 pm 13:55 Sunny 82 27.9 74 23.4 77 77 N 6 9 29.8 1009 10 16.09344 0 0
2:15 pm 14:15 Sunny 82 28 74 23.5 77 77 NNE 7 11 29.8 1009 10 16.09344 0 0
2:35 pm 14:35 Partly Cloudy 82 28 75 23.8 78 78 NNE 7 11 29.8 1009 10 16.09344 0 0
2:55 pm 14:55 Partly Cloudy 84 28.7 73 22.8 70 70 NE 6 9 29.8 1009 10 16.09344 0 0
3:15 pm 15:15 Partly Cloudy 85 29.2 73 23 69 69 ENE 7 11 29.8 1009 10 16.09344 0 0
3:35 pm 15:35 Partly Cloudy 85 29.4 73 22.5 66 66 ENE 6 9 29.8 1009 10 16.09344 0 0
3:55 pm 15:55 Sunny 86 30 74 23.2 67 67 ENE 7 11 29.77 1008 10 16.09344 0 0
4:15 pm 16:15 Sunny 86 30 74 23.5 68 68 E 8 13 29.77 1008 10 16.09344 0 0
4:35 pm 16:35 Partly Cloudy 85 29.5 75 23.9 72 72 E 9 15 29.8 1009 10 16.09344 0 0
4:55 pm 16:55 Partly Cloudy 85 29.6 75 24 72 72 E 9 15 29.8 1009 10 16.09344 0 0
5:15 pm 17:15 Sunny 87 30.4 76 24.2 69 69 ENE 9 15 29.77 1008 10 16.09344 0 0
5:35 pm 17:35 Sunny 86 30.1 75 24.1 70 70 E 9 15 29.77 1008 10 16.09344 0 0
5:55 pm 17:55 Sunny 86 30 76 24.2 71 71 ENE 10 17 29.74 1007 10 16.09344 0 0
6:15 pm 18:15 Sunny 86 29.8 75 24 71 71 ENE 12 19 29.74 1007 10 16.09344 0 0
6:35 pm 18:35 Sunny 83 28.6 75 24 76 76 E 12 19 29.77 1008 10 16.09344 0 0
6:55 pm 18:55 Sunny 83 28.2 76 24.3 79 79 E 7 11 29.77 1008 10 16.09344 0 0
7:15 pm 19:15 Sunny 82 27.6 76 24.4 83 83 ENE 7 11 29.8 1009 10 16.09344 0 0
7:35 pm 19:35 Sunny 81 27 76 24.3 85 85 ENE 7 11 29.8 1009 10 16.09344 0 0
7:55 pm 19:55 Sunny 80 26.5 76 24.2 87 87 NE 6 9 29.8 1009 10 16.09344 0 0
8:15 pm 20:15 Sunny 79 26.2 75 24.1 88 88 ENE 8 13 29.77 1008 10 16.09344 0 0
8:35 pm 20:35 Mostly Cloudy 79 26 75 24.1 89 89 E 6 9 29.85 1011 10 16.09344 0 0
8:55 pm 20:55 Mostly Cloudy with Rain 78 25.5 76 24.5 94 94 ENE 6 9 29.85 1011 7 11.265408 0.01 0.254
9:15 pm 21:15 Mostly Cloudy with Nearby Thunderstorms 77 25.1 76 24.3 95 95 ENE 9 15 29.83 1010 7 11.265408 0.02 0.508
9:35 pm 21:35 Mostly Cloudy with Nearby Thunderstorms 77 25.1 76 24.3 95 95 ENE 7 11 29.85 1011 7 11.265408 0.04 1.016
9:55 pm 21:55 Partly Cloudy with Light Thunderstorms 77 25.1 76 24.5 96 96 E 7 11 29.88 1012 7 11.265408 0.06 1.524
10:15 pm 22:15 Partly Cloudy with Light Thunderstorms 77 25 76 24.5 97 97 E 7 11 29.88 1012 7 11.265408 0.02 0.508
10:35 pm 22:35 Mostly Cloudy 77 25.1 76 24.7 98 98 E 6 9 29.88 1012 5 8.04672 0.02 0.508
10:55 pm 22:55 Mostly Cloudy with Light Thunderstorms 77 25 76 24.5 97 97 Calm 29.91 1013 7 11.265408 0.03 0.762
11:15 pm 23:15 Mostly Cloudy 76 24.5 76 24.5 100 100 WSW 8 13 29.91 1013 4 6.437376 0.01 0.254
11:35 pm 23:35 Cloudy with Rain 72 22.2 70 21 93 93 Calm 29.94 1014 10 16.09344 0.03 0.762
11:55 pm 23:55 Partly Cloudy with Light Rain 71 21.8 70 20.9 95 95 Calm 29.94 1014 10 16.09344 0.03 0.762

Powered by AerisWeather